Location: Castelbiague
(43.0361°N, 0.9246°E)
Time: 08:55:10
(UTC+00:00)

Landsat 7 - Pass Details

Date: 17 June 2021
Orbit: 701 x 703 km, 98.0° (Epoch: 01 August)

Event Time Altitude Azimuth Distance (km) Brightness Sun altitude
Exits shadow 20:36:42 - 164° (SSE) 2,354 6.0 -9.1°
Reaches altitude 10° 20:37:10 10° 164° (SSE) 2,164 5.8 -9.2°
Maximum altitude 20:41:55 87° 77° (ENE) 711 3.8 -9.8°
Drops below altitude 10° 20:46:43 10° 348° (NNW) 2,180 7.3 -10.4°
Sets 20:48:59 0° 348° (NNW) 3,103 8.3 -10.7°
